www.pogodaiklimat.ru

Погода и климат >> Архив погоды >> Болгария >> Сандански


ПОГОДА в Сандански

  • Прогноз погоды в Сандански
  • Монитор погоды в Сандански

АРХИВ ПОГОДЫ в Сандански

Время (UTC), дата Ветер
(напр.,м/с)
 
Видим.   Явления Облачность Т
(С)
Тd
(С)
f
(%)
Тe
(С)
Тes
(С)
Комфортность P
(гПа)
Po
(гПа)
Тmin
(С)
Tmax
(С)
R
(мм)
R24
(мм)
S
(см)
15 12.01 З 4 20 км 9/8 1000 м
[Sc Ac trans Ci fib]
-0.2 -5.3 68 -5 -5 1015.5 989.6 -4.0 +3.2 1
18 12.01 СЗ 2 25 км 4/3 1000 м
[St Ac trans Ci fib]
-2.1 -6.6 71 -6 -6 1016.8 990.7 -4.0 +3.2 1
21 12.01 СЗ 2 25 км 3/3 1000 м
[St]
-3.6 -6.4 81 -8 -8 1017.5 991.3 -4.3 -1.7 1
00 13.01 штиль 0 25 км 1/1 1000 м
[St]
-4.6 -6.5 87 -6 -6 1016.5 990.2 -4.8 -1.7 1
03 13.01 штиль 0 25 км 3/3 1000 м
[St Ac trans]
-5.4 -7.1 88 -6 -6 1014.6 988.3 -5.8 -1.7 1
06 13.01 штиль 0 30 км 1/1 1000 м
[St]
-7.4 -8.9 89 -8 -8 1015.2 988.6 -7.8 -1.7 1
09 13.01 штиль 0 30 км 4/1 1000 м
[St Ac trans Ci fib]
-3.0 -4.8 87 -4 -0 1014.4 988.3 -7.8 -2.0
12 13.01 В 2 28 км 6/3 600 м
[Cb calv Ac trans Ci fib]
+1.2 -4.8 64 -2 0 1012.9 987.2 -7.8 +1.8
15 13.01 штиль 0 28 км 8/5 1000 м
[Sc Ac trans]
+1.7 -5.2 60 +1 +1 1009.6 984.1 -7.8 +3.0
18 13.01 штиль 0 25 км 8/0
[Ac trans]
-0.2 -4.0 76 -1 -1 1009.7 984.0 -7.8 +3.0
21 13.01 штиль 0 25 км 9/9 1000 м
[Sc]
+0.2 -2.9 80 -1 -1 1009.3 983.6 -0.3 +0.2
00 14.01 штиль 0 20 км 4/0
[Ac trans]
-2.6 -4.3 88 -4 -4 1008.1 982.2 -3.0 +0.5
03 14.01 штиль 0 20 км 4/0
[Ac trans]
-4.2 -5.4 91 -5 -5 1006.3 980.3 -4.8 +0.5
06 14.01 штиль 0 28 км 6/0
[Ac trans Ci fib]
-5.8 -6.4 96 -7 -7 1005.4 979.3 -6.4 +0.5 1
09 14.01 З 1 18 км 9/0
[Ac As Ci fib]
-1.8 -4.0 85 -4 -2 1004.6 978.9 -6.5 -1.5 1
12 14.01 В 1 25 км 10/1 1500 м
[Cu hum Ac As]
+0.5 -7.2 56 -1 0 1002.9 977.4 -6.5 +0.6 1
15 14.01 штиль 0 28 км 10/5 600 м
[Sc Ac As]
+1.5 -5.1 61 +1 +1 1002.3 976.9 -6.5 +2.5 1
18 14.01 штиль 0 28 км 8/0
[Ac As]
+0.2 -3.2 78 -1 -1 1003.3 977.8 -6.5 +2.5
21 14.01 штиль 0 28 км 10/5 1000 м
[Sc Ac As]
-0.3 -3.0 82 -1 -1 1004.3 978.7 -1.0 +0.5
00 15.01 штиль 0 28 км 10/5 600 м
[Sc Ac As]
-0.3 -2.1 88 -2 -2 1005.5 979.9 -1.3 +0.5
03 15.01 СЗ 3 30 км 4/1 1000 м
[Cu hum Ac trans]
+1.8 -6.8 53 -2 -2 1005.1 979.7 -1.3 +3.6
06 15.01 З 9
{15}
30 км 4/1 1000 м
[Cu hum Ac trans Ci fib]
+2.1 -9.4 42 -4 -4 1006.7 981.3 -1.3 +3.7 1
09 15.01 З 8
{18}
28 км 3/3 1000 м
[Cu med, cong Ac trans]
+3.0 -7.8 45 -3 -2 1008.9 983.5 +0.7 +3.6 1
12 15.01 З 17
{25}
30 км 1/1 1000 м
[Cu hum]
+3.0 -10.2 37 -5 -5 1007.5 982.1 +0.7 +3.7 1
15 15.01 З 14
{23}
30 км 1/1 1000 м
[Cu hum]
+1.8 -10.9 38 -6 -6 1010.5 984.9 +0.7 +4.0 1
18 15.01 З 9
{19}
30 км 1/1 1000 м
[Cu hum]
+0.2 -11.6 41 -7 -7 1014.2 988.4 0.0 +4.0 <0.5
21 15.01 З 7
{15}
30 км 1/1 1000 м
[Cu hum]
-0.8 -11.2 45 -7 -7 1017.3 991.3 -1.0 +0.5 <0.5
00 16.01 З 7 30 км 3/1 1000 м
[Cu hum Ci fib]
-1.4 -9.4 54 -8 -8 1017.5 991.5 -2.2 +0.5 <0.5
03 16.01 штиль 0 30 км 3/1 1000 м
[Cu hum Ci fib]
-1.8 -10.0 53 -2 -2 1018.1 992.0 -2.2 +0.5 <0.5
06 16.01 штиль 0 30 км 1/1 1000 м
[Cu hum]
-3.4 -9.7 62 -4 -4 1018.9 992.6 -4.2 +0.5 <0.5
09 16.01 штиль 0 30 км 3/3 1000 м
[Cu hum]
+1.8 -8.4 47 +2 +5 1020.7 994.9 -4.5 +2.0 <0.5
12 16.01 В 1 30 км 4/3 1000 м
[Cu med, cong Ci fib]
+4.6 -9.5 35 +4 +7 1018.2 992.7 -4.5 +4.6
15 16.01 В 2 30 км 3/0
[Ac lent Ci fib]
+5.2 -5.2 47 +3 +3 1017.5 992.1 -4.5 +8.2
18 16.01 В 1 30 км ясно +2.6 -7.2 48 +2 +2 1019.5 993.8 -4.5 +8.2 0
21 16.01 штиль 0 30 км 1/0
[Ac trans]
+0.7 -6.1 60 0 0 1021.2 995.3 +0.4 +2.9 0
00 17.01 штиль 0 30 км ясно 0.0 -5.9 64 -1 -1 1021.3 995.3 -0.4 +2.9 0
03 17.01 штиль 0 25 км ясно -3.0 -5.1 85 -4 -4 1021.6 995.3 -3.8 +2.9 0
06 17.01 СЗ 3 30 км 1/1 1000 м
[Cu hum]
-2.8 -5.2 84 -8 -8 1021.9 995.6 -3.8 +2.9 0
09 17.01 СЗ 1 30 км ясно +1.6 -4.7 63 0 +5 1022.4 996.5 -4.4 +2.0 0
12 17.01 штиль 0 30 км ясно +6.8 -6.4 38 +7 +12 1019.5 994.2 -4.4 +7.3 0
15 17.01 штиль 0 30 км ясно +7.6 -7.2 34 +8 +8 1018.9 993.7 -4.4 +8.6 0
18 17.01 З 1 25 км ясно +2.6 -3.3 65 +1 +1 1020.3 994.6 -4.4 +8.6 <0.5
21 17.01 штиль 0 28 км ясно -0.4 -3.5 80 -1 -1 1021.5 995.5 -0.6 +2.9 <0.5
00 18.01 штиль 0 24 км ясно -1.6 -4.5 81 -3 -3 1021.1 995.0 -2.5 +2.9 <0.5
03 18.01 штиль 0 20 км ясно -2.8 -3.9 92 -4 -4 1020.1 993.9 -3.6 +2.9 <0.5
06 18.01 штиль 0 30 км 3/0
[Ci sp]
-3.6 -4.2 96 -5 -5 1020.6 994.3 -4.6 +2.9 <0.5
09 18.01 СЗ 1 25 км 9/3 600 м
[St Ac lent Ci sp]
-0.2 -2.8 83 -2 -0 1020.2 994.2 -4.8 +0.2 0
12 18.01 штиль 0 25 км 9/3 600 м
[St As trans]
+3.6 -3.7 59 +3 +5 1018.0 992.4 -4.8 +3.8 0
15 18.01 В 1 30 км 9/0
[As trans]
+3.4 -2.9 63 +2 +2 1017.7 992.1 -4.8 +5.4 0
18 18.01 штиль 0 28 км 8/0
[Ac As]
+1.5 -2.9 73 +1 +1 1018.8 993.0 -4.8 +5.4 0
21 18.01 штиль 0 28 км 4/0
[Ac trans]
-0.6 -3.0 84 -2 -2 1019.4 993.4 -1.0 +1.8 0
00 19.01 штиль 0 25 км 8/0
[Ac As]
0.0 -2.4 84 -1 -1 1019.4 993.5 -1.0 +1.8 0
03 19.01 штиль 0 25 км 8/0
[Ac As]
+0.4 -1.6 86 -1 -1 1019.3 993.4 -1.0 +1.8 0
06 19.01 штиль 0 10 км дымка 8/5 1000 м
[Sc Ac trans]
-0.3 -2.1 88 -2 -2 1019.3 993.3 -1.0 +1.8 0
09 19.01 З 3 6000 м дымка 8/6 1000 м
[Sc Ac trans Cs]
+3.8 -0.5 73 0 +1 1020.4 994.8 -0.9 +4.0 0
12 19.01 штиль 0 6000 м дымка 9/3 1000 м
[Sc Ac As]
+5.7 -0.9 62 +5 +7 1018.7 993.3 -0.9 +6.0 0

 

Местоположение метеостанции Сандански (Болгария): широта 41.52 долгота 23.27 высота над уровнем моря 207 м.

В архиве по умолчанию представлена погода в Сандански за последнюю неделю. Архивные данные за месяц целиком и за предыдущие месяцы, начиная с января 2011 года, Вы можете получить, выбрав интересующий диапазон дат из раскрывающегося списка и нажав кнопку "Ввод!".


*Определитесь, кто Вы:
робот инопланетянин человек

Внимание! Время в таблицах - всемирное. Для получения местного времени необходимо прибавить поправку, которая равна 2 ч.

Смотрите также архив погоды в соседних городах и на ближайших метеорологических станциях:

Погода в Берово (Македония) (41 км)
Погода в Струмице (Македония) (53 км)
Погода в Серре (Греция) (56 км)
Погода в Винице (Македония) (75 км)
Погода в Гевгелии (Македония) (76 км)
Погода на Мусале (Болгария) (78 км)
Погода в Демир-Капия (Македония) (86 км)
Погода в Штипе (Македония) (94 км)
Погода в Крива-Паланке (Македония) (109 км)
Погода в Салониках (Греция) (114 км)

Пояснения к столбцам:

Ветер - указаны скорость ветра в м/с - средняя за 10 мин, порывы в срок и между сроками (в фигурных скобках) и направление, откуда дует ветер: С - северный, СВ - северо-восточный, В - восточный, ЮВ - юго-восточный, Ю - южный, ЮЗ - юго-западный, З - западный, СЗ - северо-западный.
Видимость - горизонтальная дальность видимости в метрах или километрах. При видимости от 1 до 10 км при отсутствии осадков обычно наблюдается дымка, при ухудшении видимости до 1 км и менее - туман. В сухую погоду видимость может ухудшаться дымом, пылью или мглою.
Явления - указаны атмосферные явления, наблюдавшиеся в срок или в последний час перед сроком; фигурными скобками обозначены явления, наблюдавшиеся между сроками (за 1-3 часа до срока); квадратными скобками обозначены град или гололедные отложения с указанием их диаметра в мм.
Облачность - указаны через наклонную черту общая и нижняя облачность в баллах и высота нижней границы облаков в метрах; квадратными скобками обозначены формы облаков: Ci - перистые, Cs - перисто-слоистые, Cc - перисто-кучевые, Ac - высококучевые, As - высокослоистые, Sc - слоисто-кучевые, Ns - слоисто-дождевые, Cu - кучевые, Cb - кучево-дождевые. Подробнее классификацию облаков см. в Атласе облаков (PDF).
T - Температура воздуха - температура, измеренная на высоте 2 м над землей.
Td - Температура точки росы - температура, при понижении до которой содержащийся в воздухе водяной пар достигнет насыщения.
f - Относительная влажность воздуха - влажноcть воздуха, измеренная на высоте 2 м над землей.
Te - Эффективная температура - температура, которую ощущает одетый по сезону человек в тени. Характеристика душности погоды. При расчете учитывается влияние влажности воздуха и скорости ветра на теплоощущения человека.
Tes - Эффективная температура на солнце - температура, которую ощущает человек, с поправкой на солнечный нагрев. Характеристика знойности погоды. Зависит от высоты солнца над горизонтом, облачности и скорости ветра. Ночью, в пасмурную погоду, а также при ветре 12 м/с и более поправка равна нулю.
P - Атмосферное давление - приведенное к уровню моря атмосферное давление.
Po - Атмосферное давление - измеренное на уровне метеостанции атмосферное давление.
Tmin - Минимальная температура - минимум температуры воздуха на высоте 2 м над землей.
Tmax - Максимальная температура - максимум температуры воздуха на высоте 2 м над землей.
R - Количество осадков - Количество выпавших осадков за период времени, мм. При наведении курсора мыши на число - период времени, за который выпало указанное количество осадков.
R24 - Количество осадков - Количество выпавших осадков за 24 часа, мм.
S - Снежный покров - Высота снежного покрова, см. При наведении курсора мыши на число - состояние снежного покрова и степень покрытия местности в баллах.